Location: Abundant Grace Fellowship
(35.0349°N, 90.0924°W)
Time: 23:14:48
(UTC+00:00)

Meteor 1-21 - Pass Details

Date: 18 January 2026
Orbit: 845 x 885 km, 81.2° (Epoch: 13 February)

Event Time Altitude Azimuth Distance (km) Brightness Sun altitude
Exits shadow 10:51:10 83° 243° (WSW) 875 4.1 -27.5°
Drops below altitude 10° 10:56:47 10° 176° (S) 2,508 6.8 -26.4°
Sets 10:59:13 0° 176° (S) 3,448 7.5 -25.9°
